| time (UTC) | temp F | wind direction | speed MPH | gust MPH | rain 1hr in | rain 24hr in | rain mn in | humidity % | barometer mb |
| 20260905160037 | 50 | 314 | 0.0 | 1.0 | 0.00 | 0.00 | 0.00 | 78 | 1013.7 |
| 20260905154522 | 50 | 321 | 3.0 | 5.0 | 0.00 | 0.00 | 0.00 | 72 | 1013.8 |
| 20260905153019 | 50 | 315 | 4.0 | 6.0 | 0.00 | 0.00 | 0.00 | 68 | 1013.9 |
| 20260905151518 | 49 | 337 | 1.0 | 4.0 | 0.00 | 0.00 | 0.00 | 70 | 1013.8 |
| 20260905150017 | 49 | 295 | 3.0 | 4.0 | 0.00 | 0.00 | 0.00 | 70 | 1013.7 |
| 20260905144517 | 49 | 347 | 2.0 | 4.0 | 0.00 | 0.00 | 0.00 | 72 | 1013.7 |
| 20260905143015 | 48 | 316 | 2.0 | 5.0 | 0.00 | 0.00 | 0.00 | 74 | 1013.6 |
| 20260905141512 | 47 | 356 | 2.0 | 5.0 | 0.00 | 0.00 | 0.00 | 76 | 1013.5 |
| 20260905140010 | 46 | 326 | 3.0 | 5.0 | 0.00 | 0.00 | 0.00 | 76 | 1013.3 |
| 20260905134508 | 45 | 354 | 2.0 | 4.0 | 0.00 | 0.00 | 0.00 | 77 | 1013.1 |
| 20260905133005 | 46 | 347 | 2.0 | 4.0 | 0.00 | 0.00 | 0.00 | 77 | 1012.9 |
| 20260905131504 | 46 | 1 | 2.0 | 5.0 | 0.00 | 0.00 | 0.00 | 76 | 1012.8 |
| 20260905130001 | 45 | 51 | 0.0 | 5.0 | 0.00 | 0.00 | 0.00 | 76 | 1012.7 |
| 20260905124601 | 46 | 346 | 2.0 | 4.0 | 0.00 | 0.00 | 0.00 | 76 | 1012.7 |
| 20260905123104 | 46 | 356 | 2.0 | 3.0 | 0.00 | 0.00 | 0.00 | 75 | 1012.8 |
| 20260905121556 | 46 | 340 | 0.0 | 3.0 | 0.00 | 0.00 | 0.00 | 74 | 1012.8 |
| 20260905114553 | 47 | 353 | 0.0 | 0.0 | 0.00 | 0.00 | 0.00 | 73 | 1012.8 |
| 20260905113052 | 47 | 353 | 0.0 | 0.0 | 0.00 | 0.00 | 0.00 | 72 | 1012.4 |
| 20260905111623 | 47 | 311 | 3.0 | 5.0 | 0.00 | 0.00 | 0.00 | 71 | 1012.5 |
| 20260905110047 | 46 | 324 | 0.0 | 3.0 | 0.00 | 0.00 | 0.00 | 72 | 1012.5 |
| 20260905104543 | 48 | 345 | 1.0 | 4.0 | 0.00 | 0.00 | 0.00 | 70 | 1012.2 |
| 20260905103042 | 50 | 15 | 2.0 | 4.0 | 0.00 | 0.00 | 0.00 | 66 | 1012.2 |
| 20260905101544 | 50 | 87 | 2.0 | 3.0 | 0.00 | 0.00 | 0.00 | 69 | 1012.3 |
| 20260905100039 | 49 | 93 | 0.0 | 0.0 | 0.00 | 0.00 | 0.00 | 69 | 1012.1 |
| 20260905094536 | 50 | 93 | 0.0 | 0.0 | 0.00 | 0.00 | 0.00 | 68 | 1012.1 |
| 20260905093039 | 51 | 96 | 0.0 | 4.0 | 0.00 | 0.00 | 0.00 | 66 | 1011.8 |
| 20260905091533 | 51 | 96 | 1.0 | 5.0 | 0.00 | 0.00 | 0.00 | 66 | 1011.9 |
| 20260905090034 | 51 | 85 | 0.0 | 4.0 | 0.00 | 0.00 | 0.00 | 66 | 1011.7 |
| 20260905084530 | 50 | 92 | 0.0 | 0.0 | 0.00 | 0.00 | 0.00 | 67 | 1011.7 |
| 20260905083035 | 52 | 82 | 4.0 | 7.0 | 0.00 | 0.00 | 0.00 | 65 | 1011.7 |
| 20260905081526 | 51 | 83 | 1.0 | 5.0 | 0.00 | 0.00 | 0.00 | 65 | 1011.7 |
| 20260905080025 | 52 | 89 | 0.0 | 2.0 | 0.00 | 0.00 | 0.00 | 63 | 1011.7 |
| 20260905074520 | 53 | 96 | 0.0 | 7.0 | 0.00 | 0.00 | 0.00 | 60 | 1011.7 |
| 20260905073023 | 54 | 114 | 1.0 | 6.0 | 0.00 | 0.00 | 0.00 | 60 | 1011.7 |
| 20260905071515 | 55 | 240 | 6.0 | 12.0 | 0.00 | 0.00 | 0.00 | 57 | 1011.6 |
| 20260905070014 | 55 | 246 | 9.0 | 15.0 | 0.00 | 0.00 | 0.00 | 58 | 1011.3 |
| 20260905064518 | 55 | 264 | 9.0 | 22.0 | 0.00 | 0.00 | 0.00 | 59 | 1011.1 |
| 20260905063010 | 55 | 205 | 6.0 | 15.0 | 0.00 | 0.00 | 0.00 | 57 | 1011.0 |
| 20260905061508 | 55 | 215 | 10.0 | 18.0 | 0.00 | 0.00 | 0.00 | 58 | 1010.9 |
| 20260905060015 | 56 | 271 | 6.0 | 13.0 | 0.00 | 0.00 | 0.00 | 56 | 1010.8 |
| 20260905054507 | 56 | 245 | 8.0 | 12.0 | 0.00 | 0.00 | 0.00 | 57 | 1010.7 |
| 20260905053017 | 56 | 231 | 4.0 | 10.0 | 0.00 | 0.00 | 0.00 | 55 | 1010.6 |
| 20260905051504 | 56 | 245 | 8.0 | 15.0 | 0.00 | 0.00 | 0.00 | 55 | 1010.6 |
| 20260905050002 | 56 | 263 | 7.0 | 17.0 | 0.00 | 0.00 | 0.00 | 55 | 1010.4 |
| 20260905044502 | 57 | 241 | 14.0 | 24.0 | 0.00 | 0.00 | 0.00 | 54 | 1010.3 |
| 20260905043059 | 56 | 233 | 16.0 | 28.0 | 0.00 | 0.00 | 0.00 | 58 | 1010.1 |
| 20260905041558 | 56 | 235 | 14.0 | 26.0 | 0.00 | 0.00 | 0.00 | 59 | 1010.1 |
| 20260905040055 | 56 | 260 | 16.0 | 23.0 | 0.00 | 0.00 | 0.00 | 58 | 1009.8 |
| 20260905034554 | 56 | 195 | 18.0 | 31.0 | 0.00 | 0.00 | 0.00 | 58 | 1009.8 |
| 20260905033053 | 57 | 300 | 10.0 | 18.0 | 0.00 | 0.00 | 0.00 | 56 | 1009.6 |
| 20260905031551 | 57 | 251 | 8.0 | 17.0 | 0.00 | 0.00 | 0.00 | 56 | 1009.6 |
| 20260905024549 | 58 | 94 | 4.0 | 11.0 | 0.00 | 0.00 | 0.00 | 53 | 1009.7 |
| 20260905023047 | 57 | 285 | 4.0 | 19.0 | 0.00 | 0.00 | 0.00 | 54 | 1009.4 |
| 20260905021547 | 58 | 243 | 13.0 | 20.0 | 0.00 | 0.00 | 0.00 | 55 | 1008.8 |
| 20260905020059 | 59 | 228 | 14.0 | 22.0 | 0.00 | 0.00 | 0.00 | 54 | 1008.9 |
| 20260905014547 | 60 | 241 | 20.0 | 26.0 | 0.00 | 0.00 | 0.00 | 53 | 1008.7 |
| 20260905013044 | 61 | 250 | 14.0 | 23.0 | 0.00 | 0.00 | 0.00 | 52 | 1008.8 |
| 20260905011542 | 61 | 248 | 16.0 | 23.0 | 0.00 | 0.00 | 0.00 | 52 | 1008.8 |
| 20260905010042 | 62 | 255 | 12.0 | 21.0 | 0.00 | 0.00 | 0.00 | 51 | 1009.0 |
| 20260905004555 | 62 | 233 | 14.0 | 20.0 | 0.00 | 0.00 | 0.00 | 50 | 1009.0 |
| 20260905003040 | 63 | 231 | 12.0 | 22.0 | 0.00 | 0.00 | 0.00 | 49 | 1009.1 |
| 20260905001540 | 64 | 271 | 16.0 | 25.0 | 0.00 | 0.00 | 0.00 | 48 | 1009.0 |
| 20260905000041 | 64 | 230 | 14.0 | 21.0 | 0.00 | 0.00 | 0.00 | 47 | 1009.2 |
| 20260904234536 | 64 | 207 | 14.0 | 20.0 | 0.00 | 0.00 | 0.00 | 47 | 1009.2 |
| 20260904233044 | 65 | 231 | 9.0 | 21.0 | 0.00 | 0.00 | 0.00 | 45 | 1009.2 |
| 20260904231535 | 65 | 285 | 9.0 | 19.0 | 0.00 | 0.00 | 0.00 | 45 | 1009.1 |
| 20260904230032 | 65 | 185 | 11.0 | 19.0 | 0.00 | 0.00 | 0.00 | 43 | 1009.1 |
| 20260904224531 | 66 | 231 | 7.0 | 20.0 | 0.00 | 0.00 | 0.00 | 45 | 1009.1 |
| 20260904223031 | 66 | 242 | 14.0 | 20.0 | 0.00 | 0.00 | 0.00 | 44 | 1009.1 |
| 20260904221628 | 66 | 213 | 11.0 | 18.0 | 0.00 | 0.00 | 0.00 | 43 | 1009.1 |
| 20260904220028 | 65 | 226 | 11.0 | 20.0 | 0.00 | 0.00 | 0.00 | 45 | 1009.1 |
| 20260904214527 | 65 | 244 | 12.0 | 21.0 | 0.00 | 0.00 | 0.00 | 46 | 1009.1 |
| 20260904213029 | 65 | 286 | 13.0 | 20.0 | 0.00 | 0.00 | 0.00 | 46 | 1009.2 |
| 20260904211525 | 65 | 233 | 12.0 | 19.0 | 0.00 | 0.00 | 0.00 | 46 | 1009.2 |
| 20260904210028 | 65 | 229 | 14.0 | 23.0 | 0.00 | 0.00 | 0.00 | 45 | 1009.1 |
| 20260904204522 | 64 | 257 | 10.0 | 21.0 | 0.00 | 0.00 | 0.00 | 48 | 1009.1 |
| 20260904203021 | 65 | 223 | 14.0 | 24.0 | 0.00 | 0.00 | 0.00 | 47 | 1009.2 |
| 20260904201519 | 64 | 199 | 15.0 | 24.0 | 0.00 | 0.00 | 0.00 | 48 | 1009.2 |
| 20260904200019 | 65 | 223 | 13.0 | 22.0 | 0.00 | 0.00 | 0.00 | 46 | 1009.2 |
| 20260904194520 | 64 | 248 | 17.0 | 22.0 | 0.00 | 0.00 | 0.00 | 48 | 1009.1 |
| 20260904193016 | 64 | 210 | 14.0 | 22.0 | 0.00 | 0.00 | 0.00 | 48 | 1009.1 |
| 20260904191513 | 63 | 204 | 14.0 | 24.0 | 0.00 | 0.00 | 0.00 | 49 | 1009.0 |
| 20260904190010 | 62 | 198 | 13.0 | 21.0 | 0.00 | 0.00 | 0.00 | 52 | 1009.0 |
| 20260904184509 | 60 | 287 | 10.0 | 21.0 | 0.00 | 0.00 | 0.00 | 56 | 1008.8 |
| 20260904183006 | 60 | 252 | 11.0 | 22.0 | 0.00 | 0.00 | 0.00 | 56 | 1008.8 |
| 20260904181503 | 59 | 203 | 14.0 | 25.0 | 0.00 | 0.00 | 0.00 | 58 | 1008.7 |
| 20260904180002 | 58 | 241 | 13.0 | 16.0 | 0.00 | 0.00 | 0.00 | 61 | 1008.7 |
| 20260904174608 | 58 | 244 | 11.0 | 16.0 | 0.00 | 0.00 | 0.00 | 64 | 1008.8 |
| 20260904173105 | 58 | 233 | 8.0 | 15.0 | 0.00 | 0.00 | 0.00 | 64 | 1008.7 |
| 20260904171601 | 56 | 221 | 8.0 | 13.0 | 0.00 | 0.00 | 0.00 | 69 | 1008.6 |
| 20260904170055 | 55 | 322 | 3.0 | 7.0 | 0.00 | 0.00 | 0.00 | 72 | 1008.5 |
| 20260904164554 | 55 | 299 | 3.0 | 7.0 | 0.00 | 0.00 | 0.00 | 73 | 1008.6 |
| 20260904163051 | 56 | 203 | 4.0 | 10.0 | 0.00 | 0.00 | 0.00 | 68 | 1008.3 |
| 20260904161550 | 57 | 170 | 4.0 | 12.0 | 0.00 | 0.00 | 0.00 | 65 | 1008.2 |